loading
|
Showing default

USA 164, 27168

Orbit data source: Space-Track

USA 164, 27168 is a payload satellite owned by USAF SMC (US) in GEO that was launched on Mon, 14 Jan 2002 UTC via a TITAN 401B/CENTAUR launch vehicle from the Air Force Eastern Test Range (AFETR). Payloads include a variety of satellites, spacecraft, and rockets equipped with specific instruments for various scientific and technological missions. These include communications satellites like Starlink; space stations such as the ISS; scientific satellites like the Hubble; Earth observation satellites from companies like Planet Labs, Umbra, and HawkEye 360; GPS; miniature CubeSats for education and research; and military/defense satellites.

Next visibility unknown
Loading greatness...
USA 164 details
Identifier
27168, 2002-001A
Orbit
GEO
Last TLE update19 hours ago
Origin
Flag of USUSAF SMC (US)
ManufacturerLMMS/Sunnyvale
Mission statusOperational
MissionDefense Communications
Bus & MotorMILSTAR, AOCS
Mass4,500 kg wet, ~4,200 kg dry
Launch date (UTC)
2002-01-14 (23 years ago)
Launch vehicle
TITAN 401B/CENTAUR
Launch site
Air Force Eastern Test Range (AFETR)
Object type
Payload
Rocket body
Debris
Radar Cross SectionRCS unknown

Expand to show TLE details & history

TLE from 19 hours ago
0 USA 164
1 27168U 02001A   24258.51917979  .00000095  00000-0  00000+0 0  9999
2 27168  10.4159  25.3946 0097165   1.5181 171.4927  1.00284519 25221
Epoch: 2024-09-14T12:27Z
Definitive object data (Epoch: 2024-09-14T12:27:37.133Z)
Latitude1.24414°
Longitude17.77889°
Altitude36,188.2 km
Speed3.045 km/s
True Right ascension13h 14m 38s
True Declination1° 14' 34"
Sunlit
Object was in daylight at TLE epoch
Predictive object data (real-time)
Latitude10.13771°
Longitude-52.06612°
Altitude35,862.882 km
Speed3.069 km/s
Apparent Right ascension08h 56m 12s
Apparent Declination4° 18' 48"
Sunlit
Object is in daylight
Predictive observer data (real-time)
Local Sidereal Time00:19:24
Azimuth59.12° ENE
Elevation-25.794°
Doppler factor1
Orbital elements
Apogee36,193.714 km
Perigee35,374.376 km
Semi-major axis42,162.182 km
Eccentricity0.0097165
Inclination10.4159°
RAAN25.3946°
Arg. of periapsis1.5181°
True anomaly171.65546°
Mean anomaly171.4927°
Eccentric anomaly171.57427°
Mean motion0.2507 °/min
BSTARUnknown
Period1435.97 mins
No data available
Other satellites on launch #1 in the year 2002 (2002-01-14 UTC)

USA 164 Visibility forecast

Observer location: 39.9160978°, -105.1181434

USA 164 is not visible in the next 10 days
Span
Click to sort rows by Start time (UTC) header in descending order
Start Az.
Max El. time (UTC)
Max El. Az.
Max El.
End time (UTC)
End Az.